Weather in Oqmangit

Uzbekistan     42°35′49″N   59°32′26″E
temp.,
°C
wind,
m/s
gust,
m/s
humid.,
%
clouds,
%
prec.,
mm/h
press.,
hPa
HPBL,
m
26 february, fri
fri2623:00−13sw12670 0.0 104020
02:00−14sse22660 0.0 103920
05:00−14sse23648 0.0 103723
08:00−12sse335897 0.0 103663
11:00−7s574396 0.0 1035457
14:00−4s6731100 0.0 1032759
17:00−2ssw6826100 0.0 1029859
20:00−3ssw4936100 0.0 1028342
27 february, sat
sat2723:00−4ssw71380100 0.3 1027612
02:00−3ssw8146595 0.1 1024525
05:00−1ssw8155897 0.1 1023503
08:00−2sw8139585 0.2 1023371
11:00+1sw7109492 0.6 1024337
14:00+3sw71191100 0.1 1023432
17:00+3ssw61094100 0.7 1023347
20:00+4ssw61082100 0.3 1023274
28 february, sun
sun2823:00+3ssw6126998 0.3 1023261
02:00+1ssw5106167 0.0 1023186
05:000s575737 0.0 1021111
08:000s45485 0.0 102189
11:00+6s57323 0.0 1021319
14:00+10s56240 0.0 1019823
17:00+11s45230 0.0 1017897
20:00+7sse34320 0.0 101724
1 march, mon
mon123:00+5se44330 0.0 101749
02:00+4sse444621 0.0 101660
05:00+3s345123 0.0 101634
08:00+2s34520 0.0 101725
11:00+9ssw23340 0.0 1017278
14:00+14wsw12220 0.0 1017999
17:00+15wnw23210 0.0 10171511
20:00+10n34280 0.0 101843
2 march, tue
tue223:00+6n58540 0.0 1020173
02:00+4n59890 0.0 1021248
05:00+3n489212 0.0 1022251
08:00+3n478730 0.0 1024363
11:00+6n336965 0.0 1025655
14:00+7n3362100 0.0 1025789
17:00+8nne335194 0.0 10241055
20:00+6nne2356100 0.0 102572